Tracking 34094 objects as of 10-May-2026
HD Live streaming from Space Station
objects crossing your sky now

WESTFORD NEEDLES

Track WESTFORD NEEDLES now!
10-day predictions
WESTFORD NEEDLES is classified as:


NORAD ID: 5702
Int'l Code: 1963-014CU
Perigee: 1,691.7 km
Apogee: 5,452.6 km
Inclination: 86.1 °
Period: 164.5 minutes
Semi major axis: 9943 km
RCS: 0.1919 m2 (medium)
Launch date: May 9, 1963
Source: United States (US)
Launch site: AIR FORCE WESTERN TEST RANGE (AFWTR)
Your satellite tracking list
Your tracking list is empty




NASA's NSSDC Master Catalog

Two Line Element Set (TLE):
1 05702U 63014CU  26129.22845083  .00000057  00000-0  36448-2 0  9999
2 05702  86.1229  69.5294 1891187 200.7050 150.5965  8.75618470423521
Source of the keplerian elements: AFSPC